Regional Weather Roundup
Issued by NWS

Home | Current Version | Previous Version | Text Only | Print | Product List | Glossary Off
Versions: 1 2 3 4 5 6 7 8 9 10 11 12 13 14 15 16 17 18 19 20 21 22 23 24 25 26 27 28 29 30 31 32 33 34 35 36 37 38 39 40 41 42 43 44 45 46 47 48 49 50

000
ASUS45 KBOU 152207
RWRCO

WEATHER ROUNDUP FOR COLORADO
NATIONAL WEATHER SERVICE DENVER/BOULDER CO
400 PM MDT MON SEP 15 2014

NOTE: "FAIR" INDICATES FEW OR NO CLOUDS BELOW 12000 FEET WITH NO
SIGNIFICANT WEATHER AND/OR OBSTRUCTIONS TO VISIBILITY.

COZ001>005-013-030-031-152300-
...NORTHWEST COLORADO...

CITY           SKY/WX    TMP DP  RH WIND       PRES   REMARKS
CRAIG          MOSUNNY   82  35  18 W10       30.22F
HAYDEN         MOSUNNY   79  28  15 NW12G23   30.25S
MEEKER         MOSUNNY   80  32  17 SW8       30.25F
MOUNT WERNER   NOT AVBL
STEAMBOAT SPGS MOSUNNY   77  32  19 W9        30.27S
WALDEN         CLOUDY    72  30  21 NW14G21   30.36F
$$

COZ006>008-011-152300-
...WEST CENTRAL VALLEYS...

CITY           SKY/WX    TMP DP  RH WIND       PRES   REMARKS
GRAND JUNCTION MOSUNNY   87  40  19 VRB5      30.12F
MONTROSE       MOSUNNY   85  32  15 N12       30.19F
EAGLE          MOSUNNY   79  36  21 W10       30.28R
RIFLE          PTSUNNY   83  38  20 N5        30.19S
DELTA          MOSUNNY   90  32  12 CALM      30.15F
NUCLA          MOSUNNY   81  32  17 CALM      30.23F
$$

COZ017>023-064>068-152300-
...SOUTHWEST COLORADO...

CITY           SKY/WX    TMP DP  RH WIND       PRES   REMARKS
DURANGO        PTSUNNY   81  34  18 SW12      30.23F
CORTEZ         SUNNY     81  46  29 S8        30.20F
PAGOSA SPRINGS PTSUNNY   80  24  13 SW5       30.31S
TELLURIDE      NOT AVBL
WOLF CREEK PAS CLOUDY    54  32  43 SW14G20   30.63F
$$

COZ009-010-012-014-032>034-037-058>063-152300-
...CENTRAL COLORADO...

CITY           SKY/WX    TMP DP  RH WIND       PRES   REMARKS
ASPEN          PTSUNNY   76  33  21 NW10G17   30.33F
BUENA VISTA    PTSUNNY   74  28  18 NW10      30.35S
COPPER MTN     CLOUDY    57  25  28 W17G23    30.65F
BERTHOUD PASS  CLOUDY    48  46  93 W14G21    30.69F
COTTONWOOD PAS CLOUDY    68  28  22 CALM      30.50S
GUNNISON       MOSUNNY   75  28  17 SW6       30.34F
KREMMLING      PTSUNNY   70  45  40 SE9       30.34R
LEADVILLE      MOSUNNY   63  25  23 SW13      30.48S
MONARCH PASS   MOSUNNY   61  21  21 W18G25    30.74F
SALIDA         NOT AVBL
SUNLIGHT       PTSUNNY   55  45  67 CALM      30.60S
WILKERSON PASS NOT AVBL
$$

COZ069>075-152300-
...SAN LUIS VALLEY/SANGRE DE CRISTO MOUNTAINS...

CITY           SKY/WX    TMP DP  RH WIND       PRES   REMARKS
ALAMOSA        PTSUNNY   75  28  17 S14G28    30.31F
LA VETA PASS   NOT AVBL
SAGUACHE       NOT AVBL
$$

COZ035-036-038>040-152300-
...NORTHERN COLORADO FRONT RANGE...

CITY           SKY/WX    TMP DP  RH WIND       PRES   REMARKS
DENVER INTL AP MOSUNNY   72  51  47 SE8       30.26F
DMNS CITY PARK   N/A     74  42  31 N5        30.25S
AURORA         MOSUNNY   74  51  44 SE9       30.26F
FRONT RANGE AP NOT AVBL
ERIE MUNI ARPT MOSUNNY   71  38  30 CALM      30.25F
BOULDER MUN AP MOSUNNY   70  43  37 N5        30.26S
CENTENNIAL     MOSUNNY   75  48  38 S10       30.26F
BROOMFIELD     MOSUNNY   72  41  33 N5        30.28F
FORT COLLINS   MOSUNNY   70  45  40 S6        30.26F
LONGMONT       MOSUNNY   69  42  37 NE6       30.27F
$$

COZ041-046-047-076>085-087-088-152300-
...PIKES PEAK/PALMER DIVIDE AND SOUTHERN FOOTHILLS...

CITY           SKY/WX    TMP DP  RH WIND       PRES   REMARKS
COLO. SPRINGS  MOSUNNY   68  48  48 S14       30.34F
A. F. ACADEMY  MOSUNNY   66  49  52 S14G20    30.34S
ELLICOTT       NOT AVBL
FALCON         SUNNY     67  47  48 S12G17    30.38S
FORT CARSON    SUNNY     69  49  49 S13       30.31F
LIMON          SUNNY     66  50  56 SE15      30.30F
MONUMENT HILL  SUNNY     68  46  45 S13G20    30.34F
TRINIDAD       CLOUDY    62  51  67 VRB3      30.33F
$$

COZ042>045-048>051-090-091-152300-
...NORTHEAST COLORADO...

CITY           SKY/WX    TMP DP  RH WIND       PRES   REMARKS
GREELEY ARPT   SUNNY     72  46  40 SE10      30.26F
AKRON          SUNNY     65  49  56 S9G23     30.28F
BURLINGTON     MOSUNNY   62  50  64 CALM      30.30F
WRAY           SUNNY     69  44  41 SE7       30.28F
STERLING       SUNNY     73  50  43 S9        30.24F
HOLYOKE        SUNNY     68  45  42 SE6       30.28F
FORT MORGAN    SUNNY     68  47  45 SE12      30.27F
$$

COZ086-089-092>099-152300-
...SOUTHEAST COLORADO...

CITY           SKY/WX    TMP DP  RH WIND       PRES   REMARKS
PUEBLO         MOSUNNY   70  51  51 SE9       30.27F
LA JUNTA       CLOUDY    65  53  65 E10       30.29F
LAMAR          CLOUDY    64  52  64 NE9       30.27F
SPRINGFIELD      N/A     60  53  77 N14       30.28S
$$



USA.gov is the U.S. government's official web portal to all federal, state and local government web resources and services.